TimeMST,TemperatureF,Dew PointF,Humidity,Sea Level PressureIn,VisibilityMPH,Wind Direction,Wind SpeedMPH,Gust SpeedMPH,PrecipitationIn,Events,Conditions,WindDirDegrees,DateUTC
12:53 AM,28.0,19.0,69,29.94,10.0,WNW,9.2,-,N/A,,Scattered Clouds,300,2013-02-18 07:53:00
1:53 AM,27.0,17.1,66,29.97,10.0,West,3.5,-,N/A,,Clear,270,2013-02-18 08:53:00
2:53 AM,27.0,15.1,61,29.99,10.0,North,6.9,-,N/A,,Clear,350,2013-02-18 09:53:00
3:53 AM,23.0,17.1,78,30.04,10.0,North,3.5,-,N/A,,Clear,350,2013-02-18 10:53:00
4:53 AM,24.1,16.0,71,30.06,10.0,NW,4.6,-,N/A,,Clear,310,2013-02-18 11:53:00
5:53 AM,23.0,15.1,72,30.09,10.0,ENE,3.5,-,N/A,,Clear,60,2013-02-18 12:53:00
6:53 AM,21.0,15.1,78,30.13,10.0,Calm,Calm,-,N/A,,Clear,0,2013-02-18 13:53:00
7:53 AM,24.1,16.0,71,30.17,10.0,Calm,Calm,-,N/A,,Clear,0,2013-02-18 14:53:00
8:53 AM,28.9,15.1,56,30.17,10.0,Calm,Calm,-,N/A,,Clear,0,2013-02-18 15:53:00
9:53 AM,30.9,12.0,46,30.17,10.0,Variable,4.6,-,N/A,,Clear,0,2013-02-18 16:53:00
10:53 AM,35.1,12.0,39,30.16,10.0,Calm,Calm,-,N/A,,Partly Cloudy,0,2013-02-18 17:53:00
11:53 AM,36.0,10.9,36,30.16,10.0,Calm,Calm,-,N/A,,Partly Cloudy,0,2013-02-18 18:53:00
12:53 PM,37.0,10.9,34,30.14,10.0,NNW,4.6,-,N/A,,Scattered Clouds,330,2013-02-18 19:53:00
1:53 PM,39.0,10.9,32,30.12,10.0,NNW,9.2,-,N/A,,Partly Cloudy,330,2013-02-18 20:53:00
2:53 PM,39.9,12.0,32,30.12,10.0,NW,6.9,-,N/A,,Clear,310,2013-02-18 21:53:00
3:53 PM,39.0,8.1,28,30.14,10.0,NW,11.5,-,N/A,,Clear,310,2013-02-18 22:53:00
4:53 PM,37.0,7.0,29,30.14,10.0,NW,8.1,-,N/A,,Clear,310,2013-02-18 23:53:00
5:53 PM,33.8,12.2,41,30.09,10.0,NNW,4.6,-,N/A,,Clear,340,2013-02-19 00:53:00
6:53 PM,32.0,14.0,48,30.17,10.0,Calm,Calm,-,N/A,,Clear,0,2013-02-19 01:53:00
7:53 PM,28.0,16.0,61,30.17,10.0,Calm,Calm,-,N/A,,Clear,0,2013-02-19 02:53:00
8:53 PM,28.9,15.1,56,30.14,10.0,East,4.6,-,N/A,,Clear,100,2013-02-19 03:53:00
9:53 PM,28.0,12.9,53,30.12,10.0,ESE,6.9,-,N/A,,Clear,110,2013-02-19 04:53:00
10:53 PM,27.0,15.1,61,30.12,10.0,East,11.5,-,N/A,,Clear,80,2013-02-19 05:53:00
11:53 PM,28.9,12.0,49,30.10,10.0,South,3.5,-,N/A,,Clear,180,2013-02-19 06:53:00